Miscellaneous Local Product
Issued by NWS North Platte, NE

Home | Current Version | Previous Version | Text Only | Print | Product List | Glossary On
Versions: 1 2 3 4 5 6 7 8 9 10 11 12 13 14 15 16 17 18 19 20 21 22 23 24 25 26 27 28 29 30 31 32 33 34 35 36 37 38 39 40 41 42 43 44 45 46 47 48 49 50
000
AXUS43 KLBF 051110
MISLBF


WESTERN AND NORTH CENTRAL NEBRASKA HOURLY WEATHER ROUNDUP
NATIONAL WEATHER SERVICE NORTH PLATTE NE
500 AM CST THU MAR 05 2015

***STATIONS NOT REPORTING VARIABLES SUCH AS SKY/WEATHER OR
PRESSURE ARE PROVIDED BY THE NEBRASKA DEPARTMENT OF
ROADS...RAWS...AND APRS NETWORKS...AND ARE NOT UNDER
NATIONAL WEATHER SERVICE QUALITY CONTROL***

...OBSERVATIONS IN AND NEAR THE EASTERN PANHANDLE OF NEBRASKA...

CITY           SKY/WX    TMP DP  RH WIND       PRES   REMARKS
PINE RIDGE     PTCLDY    -8 -13  78 CALM      30.18F
CHADRON        MOCLDY    -6 -11  79 SW3       30.19F
ALLIANCE       PTCLDY    -2  -7  79 SW6       30.17F WCI -14
SIDNEY         CLEAR      6   2  83 SW3       30.18F
WHITECLAY        N/A     -4 -11  74 SE8         N/A  WCI -20
CRESCENT LAKE    N/A      6   1  80 CALM        N/A
LISCO            N/A     11   2  67 W6          N/A  WCI   2
BIG SPRINGS      N/A      6   3  86 W3          N/A
LEWELLEN         N/A     -2  -6  83 CALM        N/A
$$

...OBSERVATIONS IN NORTH CENTRAL NEBRASKA...

CITY           SKY/WX    TMP DP  RH WIND       PRES   REMARKS
VALENTINE      PTCLDY    -3  -7  82 SW5       30.28F WCI -13
THEDFORD       CLEAR      4  -1  80 CALM      30.28S
AINSWORTH      CLEAR      3  -2  79 SW8       30.29F WCI -10
O`NEILL        CLEAR     -1  -6  82 SW6       30.36S WCI -13
ORD            CLEAR     -3  -8  79 S3        30.38S
BROKEN BOW     CLEAR     -2  -9  72 CALM      30.33F
BROWNLEE         N/A      0  -4  82 S9          N/A  WCI -16
SPRINGVIEW       N/A     -7 -11  81 CALM        N/A
BREWSTER         N/A     30  25  80 CALM        N/A
ROSE             N/A      9   7  91 S3          N/A
NEWPORT          N/A      8   4  86 SW5         N/A  WCI  -1
SARGENT          N/A      1  -3  85 CALM        N/A
COMSTOCK         N/A      6  -3  69 SW7         N/A  WCI  -6
CHAMBERS         N/A      0 -19  40 SW3         N/A
EWING            N/A     -1  -5  82 CALM        N/A
$$

...OBSERVATIONS IN SOUTHWEST NEBRASKA AND FAR NORTHEAST COLORADO...

CITY           SKY/WX    TMP DP  RH WIND       PRES   REMARKS
WRAY           FAIR      11   7  85 SW8       30.26S WCI  -1
IMPERIAL         N/A      7   2  80 CALM      30.26F
OGALLALA       CLEAR      3   0  87 CALM      30.25F
NORTH PLATTE   CLEAR      1  -4  79 E6        30.31S WCI -10
MCCOOK         CLEAR     10   1  67 E5        30.34S WCI   2
LEXINGTON      CLEAR      2  -2  83 CALM      30.36S
PAXTON           N/A      0  -4  80 E3          N/A
BRADY            N/A      1  -5  76 CALM        N/A
GOTHENBURG       N/A      5  -1  77 CALM        N/A
CALLAWAY         N/A      3  -2  78 SE6         N/A  WCI  -8
$$

...NORTH PLATTE AREA...

CITY           SKY/WX    TMP DP  RH WIND       PRES   REMARKS
AIRPORT        CLEAR      1  -4  79 E6        30.31S WCI -10
DOWNTOWN         N/A      5  -1  77 CALM        N/A
$$

...SOME WEATHER OBSERVATIONS FROM AROUND THE REGION...

CITY           SKY/WX    TMP DP  RH WIND       PRES   REMARKS
DENVER         PTCLDY    16   0  49 S17       30.14F WCI   0
LARAMIE        PTCLDY    12   1  61 SW18      30.10S WCI  -6
CHEYENNE       CLEAR     20   3  48 SW7       30.09F WCI  11
SCOTTSBLUFF    PTCLDY     7   0  73 CALM      30.19F
RAPID CITY     CLEAR      2  -3  80 CALM      30.14F
PIERRE         MOCLDY    -7 -10  87 SE8       30.31F WCI -23
WINNER         FAIR       7  -4  60 SW8       30.31F WCI  -6
SIOUX FALLS    CLEAR     -9 -14  78 CALM      30.43R
OMAHA          CLEAR      5  -2  72 CALM      30.51R
GRAND ISLAND   CLEAR      4  -2  76 SW3       30.43S
KANSAS CITY    CLEAR      8   0  69 N9        30.50R WCI  -5
WICHITA        CLEAR     15   8  73 NE6       30.47R WCI   6
HAYS           CLEAR     12  -2  52 CALM      30.38S
LIBERAL        CLEAR     12   7  79 W9        30.41R WCI   0
GOODLAND       CLEAR     14   9  80 W10       30.27S WCI   1
$$



USA.gov is the U.S. government's official web portal to all federal, state and local government web resources and services.